Salzburg, Austria

10:04 AM CET on January 20, 2017 (GMT +0100)
Salzburg Flughafen

Weather History for LOWS - October, 2013

Change the Weather History Date:

Saturday, October 5, 2013

  Actual Average Record
Temperature  
Mean Temperature 48 °F -  
Max Temperature 55 °F 55 °F 77 °F (2004)
Min Temperature 40 °F 39 °F 35 °F (2008)
Degree Days  
Heating Degree Days 18    
Moisture  
Dew Point 47 °F    
Average Humidity 94    
Maximum Humidity 100    
Minimum Humidity 78    
Precipitation  
Precipitation 0.04 in 0.09 in - ()
Sea Level Pressure  
Sea Level Pressure 30.05 in    
Wind  
Wind Speed 3 mph ()    
Max Wind Speed 7 mph    
Max Gust Speed -    
Visibility 5.6 miles    
Events Fog , Rain    
Averages and records for this station are not official NWS values.
T = Trace of Precipitation, MM = Missing Value Source: Averaged Metar Reports

Daily Weather History Graph

Daily Weather History Graph

Search for Another Location

Airport or City:

Trip Planner

Search our weather history database for the weather conditions in past years. The results will help you decide how hot, cold, wet, or windy it might be!

Date:

Astronomy

Oct. 05, 2013 Rise Set
Actual Time 7:12 AM CEST 6:39 PM CEST
Civil Twilight 6:41 AM CEST 7:10 PM CEST
Nautical Twilight 6:06 AM CEST 7:45 PM CEST
Astronomical Twilight 5:29 AM CEST 8:21 PM CEST
Moon 7:37 AM CEST (10/5) 6:41 PM CEST (10/5)
Length of Visible Light 12h 28m
Length of Day
11h 26m
New Moon, 0% of the Moon is Illuminated
Oct 5
New Moon
Oct 12
First Quarter
Oct 19
Full
Oct 27
Last Quarter
Nov 3
New

Hourly Weather History & Observations

Time (CEST) Temp. Windchill Dew Point Humidity Pressure Visibility Wind Dir Wind Speed Gust Speed Precip Events Conditions
12:20 AM 46.4 °F 45.2 °F 46.4 °F 100% 30.09 in 5.6 mi NW 3.5 mph - N/A   Unknown
12:50 AM 44.6 °F - 44.6 °F 100% 30.06 in 5.0 mi Variable 1.2 mph - N/A   Unknown
1:20 AM 44.6 °F - 44.6 °F 100% 30.06 in 5.0 mi Variable 2.3 mph - N/A   Unknown
1:50 AM 44.6 °F - 44.6 °F 100% 30.06 in 5.0 mi Variable 2.3 mph - N/A   Unknown
2:20 AM 42.8 °F - 42.8 °F 100% 30.06 in 5.6 mi Variable 2.3 mph - N/A   Unknown
2:50 AM 42.8 °F - 42.8 °F 100% 30.04 in 5.6 mi Variable 2.3 mph - N/A   Unknown
3:20 AM 42.8 °F - 42.8 °F 100% 30.01 in 5.6 mi Variable 2.3 mph - N/A   Unknown
3:50 AM 42.8 °F 41.1 °F 42.8 °F 100% 30.01 in - NW 3.5 mph - N/A   Clear
4:20 AM 42.8 °F 40.1 °F 42.8 °F 100% 30.01 in - NW 4.6 mph - N/A   Clear
4:50 AM 42.8 °F 39.3 °F 42.8 °F 100% 30.01 in - NW 5.8 mph - N/A   Clear
5:00 AM 42 °F - 42 °F 99% 30.04 in 6 mi NW 6.7 mph - -  
5:20 AM 42.8 °F 39.3 °F 41.0 °F 93% 29.98 in - NW 5.8 mph - N/A   Clear
5:50 AM 42.8 °F 41.1 °F 41.0 °F 93% 29.98 in - NNW 3.5 mph - N/A   Clear
6:20 AM 41.0 °F 39.0 °F 41.0 °F 100% 29.98 in - WNW 3.5 mph - N/A   Clear
6:50 AM 41.0 °F 37.1 °F 39.2 °F 93% 29.98 in 6.2 mi NW 5.8 mph - N/A Fog Shallow Fog
7:20 AM 41.0 °F 38.0 °F 39.2 °F 93% 29.98 in 6.2 mi NW 4.6 mph - N/A Fog Shallow Fog
7:50 AM 41.0 °F 37.1 °F 41.0 °F 100% 30.01 in 6.2 mi NNW 5.8 mph - N/A   Scattered Clouds
8:00 AM 42 °F - 40 °F 91% 30.05 in 7 mi NNW 6.7 mph - -   Scattered Clouds
8:20 AM 42.8 °F 40.1 °F 41.0 °F 93% 30.04 in 6.2 mi NNW 4.6 mph - N/A   Mostly Cloudy
8:50 AM 44.6 °F - 41.0 °F 87% 30.01 in 6.2 mi Variable 2.3 mph - N/A   Mostly Cloudy
9:20 AM 44.6 °F - 41.0 °F 87% 30.04 in 6.2 mi Variable 1.2 mph - N/A   Overcast
9:50 AM 46.4 °F 45.2 °F 42.8 °F 87% 30.04 in 6.2 mi South 3.5 mph - N/A   Overcast
10:20 AM 46.4 °F - 44.6 °F 93% 30.06 in 6.2 mi Variable 2.3 mph - N/A   Mostly Cloudy
10:50 AM 48.2 °F - 44.6 °F 87% 30.04 in 6.2 mi Variable 1.2 mph - N/A   Mostly Cloudy
11:00 AM 48 °F - 45 °F 84% 30.08 in 7 mi 2.2 mph - -   Partly Cloudy
11:20 AM 48.2 °F - 44.6 °F 87% 30.06 in 6.2 mi Variable 2.3 mph - N/A   Mostly Cloudy
11:50 AM 50.0 °F - 44.6 °F 82% 30.06 in 6.2 mi Variable 2.3 mph - N/A   Mostly Cloudy
12:20 PM 51.8 °F - 46.4 °F 82% 30.06 in 6.2 mi Variable 2.3 mph - N/A   Mostly Cloudy
12:50 PM 51.8 °F - 46.4 °F 82% 30.06 in 6.2 mi Variable 1.2 mph - N/A   Mostly Cloudy
1:20 PM 51.8 °F - 46.4 °F 82% 30.06 in 6.2 mi Variable 2.3 mph - N/A   Mostly Cloudy
1:50 PM 53.6 °F - 48.2 °F 82% 30.06 in 6.2 mi Variable 1.2 mph - N/A   Mostly Cloudy
2:00 PM 53 °F - 48 °F 78% 30.06 in 7 mi 2.2 mph - -   Scattered Clouds
2:20 PM 53.6 °F - 48.2 °F 82% 30.06 in 6.2 mi Variable 2.3 mph - N/A Rain Light Rain
2:50 PM 53.6 °F - 50.0 °F 88% 30.06 in 6.2 mi NNW 4.6 mph - N/A Rain Light Rain
3:20 PM 53.6 °F - 50.0 °F 88% 30.06 in 6.2 mi NNW 4.6 mph - N/A Rain Light Rain
3:50 PM 53.6 °F - 51.8 °F 94% 30.06 in 6.2 mi Variable 1.2 mph - N/A Rain Light Rain
4:20 PM 53.6 °F - 51.8 °F 94% 30.06 in 6.2 mi Variable 1.2 mph - N/A Rain Light Rain
4:50 PM 53.6 °F - 51.8 °F 94% 30.06 in 6.2 mi Variable 1.2 mph - N/A Rain Light Rain
5:00 PM 54 °F - 52 °F 90% 30.08 in 7 mi 2.2 mph - - Rain Light Rain
5:20 PM 53.6 °F - 51.8 °F 94% 30.06 in 5.6 mi Variable 1.2 mph - N/A Rain Light Rain
5:50 PM 53.6 °F - 53.6 °F 100% 30.06 in 3.7 mi Variable 1.2 mph - N/A Rain Light Rain
6:20 PM 53.6 °F - 53.6 °F 100% 30.06 in 3.7 mi Variable 1.2 mph - N/A   Mostly Cloudy
6:50 PM 53.6 °F - 53.6 °F 100% 30.06 in - Variable 1.2 mph - N/A   Mostly Cloudy
7:20 PM 53.6 °F - 53.6 °F 100% 30.06 in 3.7 mi NW 2.3 mph - N/A   Mostly Cloudy
7:50 PM 53.6 °F - 53.6 °F 100% 30.09 in 3.7 mi WNW 3.5 mph - N/A   Mostly Cloudy
8:00 PM 53 °F - 53 °F 100% 30.10 in 4 mi WNW 4.5 mph - -   Partly Cloudy
8:20 PM 53.6 °F - 53.6 °F 100% 30.06 in 3.7 mi SE 3.5 mph - N/A Rain Light Rain
8:50 PM 53.6 °F - 53.6 °F 100% 30.09 in 3.1 mi SSW 4.6 mph - N/A   Mostly Cloudy
9:20 PM 53.6 °F - 53.6 °F 100% 30.09 in 4.3 mi South 4.6 mph - N/A   Mostly Cloudy
9:50 PM 55.4 °F - 55.4 °F 100% 30.09 in 4.3 mi Variable 2.3 mph - N/A   Mostly Cloudy
10:20 PM 55.4 °F - 55.4 °F 100% 30.09 in 5.6 mi Variable 2.3 mph - N/A   Mostly Cloudy
10:50 PM 55.4 °F - 55.4 °F 100% 30.09 in 5.6 mi WNW 6.9 mph - N/A Rain Light Rain
11:00 PM 55 °F - 55 °F 99% 30.12 in 6 mi WNW 6.7 mph - - Rain Light Rain
11:20 PM 53.6 °F - 53.6 °F 100% 30.12 in 5.6 mi Variable 1.2 mph - N/A   Mostly Cloudy
11:50 PM 55.4 °F - 55.4 °F 100% 30.12 in 5.6 mi Variable 2.3 mph - N/A   Overcast